Time,TemperatureF,DewpointF,PressureIn,WindDirection,WindDirectionDegrees,WindSpeedMPH,WindSpeedGustMPH,Humidity,HourlyPrecipIn,Conditions,Clouds,dailyrainin,SoftwareType,DateUTC
2015-06-02 00:03:00,71.0,69.0,-100.00,NNE,15,1.0,3.0,94,-99.99,,,-99.99,,2015-06-02 04:03:00,
2015-06-02 00:11:00,71.0,69.0,-100.00,NNE,15,1.0,3.0,94,-99.99,,,-99.99,,2015-06-02 04:11:00,
2015-06-02 00:42:00,70.0,68.0,-100.00,NE,38,2.0,5.0,92,-99.99,,,-99.99,,2015-06-02 04:42:00,
2015-06-02 00:52:00,70.0,68.0,-100.00,NE,38,2.0,5.0,92,-99.99,,,-99.99,,2015-06-02 04:52:00,
2015-06-02 01:02:00,70.0,68.0,-100.00,NE,38,2.0,5.0,92,-99.99,,,-99.99,,2015-06-02 05:02:00,
2015-06-02 01:11:00,70.0,68.0,-100.00,NE,38,2.0,5.0,92,-99.99,,,-99.99,,2015-06-02 05:11:00,
2015-06-02 01:42:00,70.0,68.0,-100.00,NNE,30,3.0,4.0,95,-99.99,,,-99.99,,2015-06-02 05:42:00,
2015-06-02 01:52:00,70.0,68.0,-100.00,NNE,30,3.0,4.0,95,-99.99,,,-99.99,,2015-06-02 05:52:00,
2015-06-02 02:02:00,70.0,68.0,-100.00,NNE,30,3.0,4.0,95,-99.99,,,-99.99,,2015-06-02 06:02:00,
2015-06-02 02:11:00,70.0,68.0,-100.00,NNE,30,3.0,4.0,95,-99.99,,,-99.99,,2015-06-02 06:11:00,
2015-06-02 02:42:00,70.0,68.0,-100.00,North,352,2.0,5.0,95,-99.99,,,-99.99,,2015-06-02 06:42:00,
2015-06-02 02:52:00,70.0,68.0,-100.00,North,352,2.0,5.0,95,-99.99,,,-99.99,,2015-06-02 06:52:00,
2015-06-02 03:01:00,70.0,68.0,-100.00,North,352,2.0,5.0,95,-99.99,,,-99.99,,2015-06-02 07:01:00,
2015-06-02 03:11:00,70.0,68.0,-100.00,North,352,2.0,5.0,95,-99.99,,,-99.99,,2015-06-02 07:11:00,
2015-06-02 03:42:00,69.0,68.0,-100.00,NNE,22,2.0,3.0,97,-99.99,,,-99.99,,2015-06-02 07:42:00,
2015-06-02 03:51:00,69.0,68.0,-100.00,NNE,22,2.0,3.0,97,-99.99,,,-99.99,,2015-06-02 07:51:00,
2015-06-02 04:01:00,69.0,68.0,-100.00,NNE,22,2.0,3.0,97,-99.99,,,-99.99,,2015-06-02 08:01:00,
2015-06-02 04:11:00,69.0,68.0,-100.00,NNE,22,2.0,3.0,97,-99.99,,,-99.99,,2015-06-02 08:11:00,
2015-06-02 04:44:00,70.0,69.0,-100.00,NNE,26,1.0,3.0,98,-99.99,,,-99.99,,2015-06-02 08:44:00,
2015-06-02 04:51:00,70.0,69.0,-100.00,NNE,26,1.0,3.0,98,-99.99,,,-99.99,,2015-06-02 08:51:00,
2015-06-02 05:02:00,70.0,69.0,-100.00,NNE,26,1.0,3.0,98,-99.99,,,-99.99,,2015-06-02 09:02:00,
2015-06-02 05:11:00,70.0,69.0,-100.00,NNE,26,1.0,3.0,98,-99.99,,,-99.99,,2015-06-02 09:11:00,
2015-06-02 05:43:00,70.0,69.0,-100.00,NE,40,2.0,4.0,98,-99.99,,,-99.99,,2015-06-02 09:43:00,
2015-06-02 05:51:00,70.0,69.0,-100.00,NE,40,2.0,4.0,98,-99.99,,,-99.99,,2015-06-02 09:51:00,
2015-06-02 06:02:00,70.0,69.0,-100.00,NE,40,2.0,4.0,98,-99.99,,,-99.99,,2015-06-02 10:02:00,
2015-06-02 06:11:00,70.0,69.0,-100.00,NE,40,2.0,4.0,98,-99.99,,,-99.99,,2015-06-02 10:11:00,
2015-06-02 06:42:00,70.0,69.0,-100.00,NNE,23,3.0,5.0,98,-99.99,,,-99.99,,2015-06-02 10:42:00,
2015-06-02 06:51:00,70.0,69.0,-100.00,NNE,23,3.0,5.0,98,-99.99,,,-99.99,,2015-06-02 10:51:00,
2015-06-02 07:02:00,70.0,69.0,-100.00,NNE,23,3.0,5.0,98,-99.99,,,-99.99,,2015-06-02 11:02:00,
2015-06-02 07:12:00,70.0,69.0,-100.00,NNE,23,3.0,5.0,98,-99.99,,,-99.99,,2015-06-02 11:12:00,
2015-06-02 07:42:00,71.0,70.0,-100.00,NNE,22,2.0,5.0,97,-99.99,,,-99.99,,2015-06-02 11:42:00,